Time,TemperatureF,DewpointF,PressureIn,WindDirection,WindDirectionDegrees,WindSpeedMPH,WindSpeedGustMPH,Humidity,HourlyPrecipIn,Conditions,Clouds,dailyrainin,SoftwareType,DateUTC
2013-06-28 00:01:00,74.0,65.0,29.91,SSW,202,0.0,1.0,73,0.00,,,0.00,,2013-06-28 05:01:00,
2013-06-28 00:11:00,73.0,65.0,29.91,SSW,202,0.0,2.0,75,0.00,,,0.00,,2013-06-28 05:11:00,
2013-06-28 00:22:00,73.0,65.0,29.91,SSW,202,0.0,2.0,75,0.00,,,0.00,,2013-06-28 05:22:00,
2013-06-28 00:33:00,72.0,64.0,29.91,SSW,202,0.0,1.0,76,0.00,,,0.00,,2013-06-28 05:33:00,
2013-06-28 00:43:00,72.0,64.0,29.91,SSW,202,0.0,2.0,77,0.00,,,0.00,,2013-06-28 05:43:00,
2013-06-28 00:52:00,72.0,64.0,29.91,SSW,202,0.0,2.0,77,0.00,,,0.00,,2013-06-28 05:52:00,
2013-06-28 01:02:00,71.0,64.0,29.91,SSW,202,0.0,1.0,79,0.00,,,0.00,,2013-06-28 06:02:00,
2013-06-28 01:12:00,71.0,65.0,29.92,SSW,202,0.0,1.0,80,0.00,,,0.00,,2013-06-28 06:12:00,
2013-06-28 01:22:00,71.0,65.0,29.92,SSW,202,0.0,1.0,80,0.00,,,0.00,,2013-06-28 06:22:00,
2013-06-28 01:33:00,71.0,65.0,29.92,SSW,202,0.0,2.0,80,0.00,,,0.00,,2013-06-28 06:33:00,
2013-06-28 01:42:00,70.0,64.0,29.91,SSW,202,0.0,1.0,81,0.00,,,0.00,,2013-06-28 06:42:00,
2013-06-28 01:52:00,70.0,64.0,29.91,SSW,202,0.0,1.0,81,0.00,,,0.00,,2013-06-28 06:52:00,
2013-06-28 02:01:00,69.0,63.0,29.91,NW,314,0.0,3.0,82,0.00,,,0.00,,2013-06-28 07:01:00,
2013-06-28 02:11:00,69.0,64.0,29.91,NW,314,1.0,2.0,84,0.00,,,0.00,,2013-06-28 07:11:00,
2013-06-28 02:22:00,69.0,64.0,29.91,NW,314,1.0,2.0,84,0.00,,,0.00,,2013-06-28 07:22:00,
2013-06-28 02:33:00,69.0,63.0,29.91,NW,310,0.0,3.0,82,0.00,,,0.00,,2013-06-28 07:33:00,
2013-06-28 02:42:00,68.0,63.0,29.92,WNW,298,2.0,5.0,83,0.00,,,0.00,,2013-06-28 07:42:00,
2013-06-28 02:52:00,68.0,63.0,29.92,WNW,298,2.0,5.0,83,0.00,,,0.00,,2013-06-28 07:52:00,
2013-06-28 03:01:00,67.0,62.0,29.92,WNW,298,0.0,3.0,85,0.00,,,0.00,,2013-06-28 08:01:00,
2013-06-28 03:11:00,66.0,62.0,29.92,NW,310,1.0,4.0,86,0.00,,,0.00,,2013-06-28 08:11:00,
2013-06-28 03:21:00,66.0,62.0,29.92,NW,310,1.0,4.0,86,0.00,,,0.00,,2013-06-28 08:21:00,
2013-06-28 03:33:00,65.0,61.0,29.92,NW,310,0.0,2.0,88,0.00,,,0.00,,2013-06-28 08:33:00,
2013-06-28 03:43:00,65.0,61.0,29.92,NW,310,0.0,2.0,88,0.00,,,0.00,,2013-06-28 08:43:00,
2013-06-28 03:52:00,65.0,61.0,29.92,NW,310,0.0,2.0,88,0.00,,,0.00,,2013-06-28 08:52:00,
2013-06-28 04:02:00,65.0,61.0,29.92,NW,310,1.0,3.0,88,0.00,,,0.00,,2013-06-28 09:02:00,
2013-06-28 04:11:00,65.0,62.0,29.92,NW,310,0.0,3.0,89,0.00,,,0.00,,2013-06-28 09:11:00,
2013-06-28 04:22:00,65.0,62.0,29.92,NW,310,0.0,3.0,89,0.00,,,0.00,,2013-06-28 09:22:00,
2013-06-28 04:33:00,65.0,62.0,29.92,NW,305,1.0,4.0,90,0.00,,,0.00,,2013-06-28 09:33:00,
2013-06-28 04:52:00,65.0,62.0,29.92,NW,308,2.0,6.0,90,0.00,,,0.00,,2013-06-28 09:52:00,
2013-06-28 05:02:00,65.0,62.0,29.93,WNW,286,1.0,5.0,90,0.00,,,0.00,,2013-06-28 10:02:00,
2013-06-28 05:11:00,65.0,62.0,29.93,WNW,298,3.0,5.0,90,0.00,,,0.00,,2013-06-28 10:11:00,
2013-06-28 05:22:00,65.0,62.0,29.93,WNW,298,3.0,5.0,90,0.00,,,0.00,,2013-06-28 10:22:00,
2013-06-28 05:33:00,65.0,62.0,29.93,WNW,298,3.0,5.0,90,0.00,,,0.00,,2013-06-28 10:33:00,
2013-06-28 05:42:00,65.0,62.0,29.93,North,360,2.0,7.0,90,0.00,,,0.00,,2013-06-28 10:42:00,
2013-06-28 05:52:00,65.0,62.0,29.93,North,360,2.0,7.0,90,0.00,,,0.00,,2013-06-28 10:52:00,
2013-06-28 06:02:00,66.0,63.0,29.93,North,360,2.0,6.0,90,0.00,,,0.00,,2013-06-28 11:02:00,
2013-06-28 06:11:00,65.0,62.0,29.94,WNW,288,1.0,6.0,90,0.00,,,0.00,,2013-06-28 11:11:00,
2013-06-28 06:22:00,65.0,62.0,29.94,WNW,288,1.0,6.0,90,0.00,,,0.00,,2013-06-28 11:22:00,
2013-06-28 06:34:00,64.0,61.0,29.94,West,265,1.0,5.0,91,0.00,,,0.00,,2013-06-28 11:34:00,
2013-06-28 06:43:00,64.0,62.0,29.94,West,281,2.0,5.0,92,0.00,,,0.00,,2013-06-28 11:43:00,
2013-06-28 06:53:00,64.0,62.0,29.94,West,281,2.0,5.0,92,0.00,,,0.00,,2013-06-28 11:53:00,
2013-06-28 07:01:00,64.0,62.0,29.94,WNW,288,1.0,5.0,92,0.00,,,0.00,,2013-06-28 12:01:00,
2013-06-28 07:12:00,65.0,63.0,29.95,NW,309,1.0,4.0,92,0.00,,,0.00,,2013-06-28 12:12:00,
2013-06-28 07:22:00,65.0,63.0,29.95,NW,309,1.0,4.0,92,0.00,,,0.00,,2013-06-28 12:22:00,
2013-06-28 07:33:00,66.0,63.0,29.96,NW,304,2.0,4.0,91,0.00,,,0.00,,2013-06-28 12:33:00,
2013-06-28 07:43:00,66.0,63.0,29.96,WNW,293,2.0,5.0,90,0.00,,,0.00,,2013-06-28 12:43:00,
2013-06-28 07:52:00,66.0,63.0,29.96,WNW,293,2.0,5.0,90,0.00,,,0.00,,2013-06-28 12:52:00,
2013-06-28 08:01:00,68.0,64.0,29.96,WNW,292,2.0,4.0,88,0.00,,,0.00,,2013-06-28 13:01:00,
2013-06-28 08:11:00,69.0,64.0,29.96,WNW,286,1.0,5.0,85,0.00,,,0.00,,2013-06-28 13:11:00,
2013-06-28 08:23:00,69.0,64.0,29.96,WNW,286,1.0,5.0,85,0.00,,,0.00,,2013-06-28 13:23:00,
2013-06-28 08:33:00,70.0,64.0,29.97,NW,304,1.0,4.0,82,0.00,,,0.00,,2013-06-28 13:33:00,
2013-06-28 08:43:00,71.0,65.0,29.97,WNW,294,0.0,5.0,80,0.00,,,0.00,,2013-06-28 13:43:00,
2013-06-28 08:53:00,71.0,65.0,29.97,WNW,294,0.0,5.0,80,0.00,,,0.00,,2013-06-28 13:53:00,
2013-06-28 09:02:00,73.0,64.0,29.97,NW,309,0.0,4.0,73,0.00,,,0.00,,2013-06-28 14:02:00,
2013-06-28 09:11:00,74.0,59.0,29.97,NE,53,2.0,6.0,60,0.00,,,0.00,,2013-06-28 14:11:00,
2013-06-28 09:33:00,75.0,58.0,29.97,North,5,4.0,7.0,56,0.00,,,0.00,,2013-06-28 14:33:00,
2013-06-28 09:44:00,76.0,58.0,29.97,North,9,2.0,7.0,54,0.00,,,0.00,,2013-06-28 14:44:00,
2013-06-28 09:53:00,76.0,58.0,29.97,North,9,2.0,7.0,54,0.00,,,0.00,,2013-06-28 14:53:00,
2013-06-28 10:02:00,77.0,57.0,29.97,NNE,15,4.0,9.0,50,0.00,,,0.00,,2013-06-28 15:02:00,
2013-06-28 10:11:00,77.0,56.0,29.97,NNE,21,2.0,6.0,49,0.00,,,0.00,,2013-06-28 15:11:00,
2013-06-28 10:24:00,77.0,56.0,29.97,NNE,21,2.0,6.0,49,0.00,,,0.00,,2013-06-28 15:24:00,
2013-06-28 10:34:00,78.0,57.0,29.97,ENE,57,3.0,9.0,49,0.00,,,0.00,,2013-06-28 15:34:00,
2013-06-28 10:43:00,79.0,59.0,29.97,NE,47,3.0,6.0,50,0.00,,,0.00,,2013-06-28 15:43:00,
2013-06-28 10:52:00,79.0,59.0,29.97,NE,47,3.0,6.0,50,0.00,,,0.00,,2013-06-28 15:52:00,
2013-06-28 11:01:00,79.0,58.0,29.96,NNE,24,4.0,10.0,48,0.00,,,0.00,,2013-06-28 16:01:00,
2013-06-28 11:11:00,80.0,59.0,29.96,NE,44,5.0,9.0,48,0.00,,,0.00,,2013-06-28 16:11:00,
2013-06-28 11:24:00,80.0,59.0,29.96,NE,44,5.0,9.0,48,0.00,,,0.00,,2013-06-28 16:24:00,
2013-06-28 11:33:00,80.0,59.0,29.96,ENE,62,4.0,9.0,48,0.00,,,0.00,,2013-06-28 16:33:00,
2013-06-28 11:44:00,81.0,58.0,29.96,NE,38,2.0,8.0,45,0.00,,,0.00,,2013-06-28 16:44:00,
2013-06-28 11:53:00,81.0,58.0,29.96,NE,38,2.0,8.0,45,0.00,,,0.00,,2013-06-28 16:53:00,
2013-06-28 12:02:00,81.0,57.0,29.96,NNE,13,5.0,12.0,44,0.00,,,0.00,,2013-06-28 17:02:00,
2013-06-28 12:11:00,82.0,58.0,29.96,NNE,28,6.0,10.0,44,0.00,,,0.00,,2013-06-28 17:11:00,
2013-06-28 12:22:00,82.0,58.0,29.96,NNE,28,6.0,10.0,44,0.00,,,0.00,,2013-06-28 17:22:00,
2013-06-28 12:33:00,82.0,58.0,29.96,NNE,13,6.0,11.0,44,0.00,,,0.00,,2013-06-28 17:33:00,
2013-06-28 12:44:00,82.0,58.0,29.96,NNE,13,6.0,11.0,44,0.00,,,0.00,,2013-06-28 17:44:00,
2013-06-28 12:52:00,83.0,58.0,29.96,NNE,24,5.0,11.0,42,0.00,,,0.00,,2013-06-28 17:52:00,
2013-06-28 13:01:00,84.0,57.0,29.95,NNE,17,5.0,10.0,40,0.00,,,0.00,,2013-06-28 18:01:00,
2013-06-28 13:11:00,84.0,57.0,29.95,NNE,17,5.0,10.0,40,0.00,,,0.00,,2013-06-28 18:11:00,
2013-06-28 13:22:00,84.0,57.0,29.94,NE,40,7.0,11.0,40,0.00,,,0.00,,2013-06-28 18:22:00,
2013-06-28 13:33:00,84.0,56.0,29.93,NNW,344,6.0,13.0,39,0.00,,,0.00,,2013-06-28 18:33:00,
2013-06-28 13:43:00,84.0,56.0,29.93,NNW,344,6.0,13.0,39,0.00,,,0.00,,2013-06-28 18:43:00,
2013-06-28 13:52:00,85.0,57.0,29.93,NNE,28,6.0,13.0,38,0.00,,,0.00,,2013-06-28 18:52:00,
2013-06-28 14:01:00,85.0,59.0,29.93,NE,51,5.0,12.0,41,0.00,,,0.00,,2013-06-28 19:01:00,
2013-06-28 14:11:00,85.0,59.0,29.93,NE,51,5.0,12.0,41,0.00,,,0.00,,2013-06-28 19:11:00,
2013-06-28 14:22:00,85.0,57.0,29.92,NNE,17,7.0,12.0,38,0.00,,,0.00,,2013-06-28 19:22:00,
2013-06-28 14:33:00,86.0,57.0,29.92,NE,40,6.0,12.0,37,0.00,,,0.00,,2013-06-28 19:33:00,
2013-06-28 14:43:00,86.0,57.0,29.92,NE,40,6.0,12.0,37,0.00,,,0.00,,2013-06-28 19:43:00,
2013-06-28 14:53:00,86.0,56.0,29.92,NNE,28,6.0,11.0,36,0.00,,,0.00,,2013-06-28 19:53:00,
2013-06-28 15:11:00,86.0,56.0,29.91,NNW,346,5.0,14.0,36,0.00,,,0.00,,2013-06-28 20:11:00,
2013-06-28 15:22:00,86.0,57.0,29.91,NNE,31,6.0,12.0,37,0.00,,,0.00,,2013-06-28 20:22:00,
2013-06-28 15:33:00,87.0,56.0,29.91,NNE,14,6.0,11.0,35,0.00,,,0.00,,2013-06-28 20:33:00,
2013-06-28 15:43:00,87.0,56.0,29.91,NNE,14,6.0,11.0,35,0.00,,,0.00,,2013-06-28 20:43:00,
2013-06-28 15:52:00,87.0,56.0,29.91,NNE,19,6.0,12.0,35,0.00,,,0.00,,2013-06-28 20:52:00,
2013-06-28 16:01:00,87.0,54.0,29.90,NNE,13,6.0,13.0,33,0.00,,,0.00,,2013-06-28 21:01:00,
2013-06-28 16:11:00,87.0,54.0,29.90,NNE,13,6.0,13.0,33,0.00,,,0.00,,2013-06-28 21:11:00,
2013-06-28 16:23:00,87.0,55.0,29.90,North,350,7.0,12.0,34,0.00,,,0.00,,2013-06-28 21:23:00,
2013-06-28 16:34:00,87.0,54.0,29.90,North,11,8.0,16.0,33,0.00,,,0.00,,2013-06-28 21:34:00,
2013-06-28 16:43:00,87.0,54.0,29.90,North,11,8.0,16.0,33,0.00,,,0.00,,2013-06-28 21:43:00,
2013-06-28 16:53:00,87.0,55.0,29.89,NNE,24,6.0,15.0,34,0.00,,,0.00,,2013-06-28 21:53:00,
2013-06-28 17:01:00,87.0,55.0,29.89,NE,46,7.0,11.0,34,0.00,,,0.00,,2013-06-28 22:01:00,
2013-06-28 17:11:00,87.0,55.0,29.89,NE,46,7.0,11.0,34,0.00,,,0.00,,2013-06-28 22:11:00,
2013-06-28 17:22:00,87.0,54.0,29.89,North,5,7.0,12.0,33,0.00,,,0.00,,2013-06-28 22:22:00,
2013-06-28 17:34:00,88.0,56.0,29.88,North,360,4.0,12.0,34,0.00,,,0.00,,2013-06-28 22:34:00,
2013-06-28 17:43:00,88.0,56.0,29.88,North,360,4.0,12.0,34,0.00,,,0.00,,2013-06-28 22:43:00,
2013-06-28 17:52:00,88.0,55.0,29.88,NNE,12,5.0,9.0,33,0.00,,,0.00,,2013-06-28 22:52:00,
2013-06-28 18:01:00,88.0,55.0,29.88,NNE,12,5.0,9.0,33,0.00,,,0.00,,2013-06-28 23:01:00,
2013-06-28 18:11:00,88.0,55.0,29.88,NNE,12,5.0,9.0,33,0.00,,,0.00,,2013-06-28 23:11:00,
2013-06-28 18:23:00,88.0,56.0,29.88,NNE,28,5.0,11.0,34,0.00,,,0.00,,2013-06-28 23:23:00,
2013-06-28 18:34:00,88.0,56.0,29.87,North,360,5.0,12.0,34,0.00,,,0.00,,2013-06-28 23:34:00,
2013-06-28 18:43:00,88.0,56.0,29.87,North,360,5.0,12.0,34,0.00,,,0.00,,2013-06-28 23:43:00,
2013-06-28 18:53:00,87.0,55.0,29.87,NNE,31,6.0,11.0,34,0.00,,,0.00,,2013-06-28 23:53:00,
2013-06-28 19:02:00,87.0,56.0,29.87,NNE,15,4.0,8.0,35,0.00,,,0.00,,2013-06-29 00:02:00,
2013-06-28 19:11:00,87.0,56.0,29.87,NNE,15,4.0,8.0,35,0.00,,,0.00,,2013-06-29 00:11:00,
2013-06-28 19:22:00,87.0,56.0,29.87,NNE,25,4.0,9.0,35,0.00,,,0.00,,2013-06-29 00:22:00,
2013-06-28 19:33:00,87.0,56.0,29.87,NNE,25,4.0,9.0,35,0.00,,,0.00,,2013-06-29 00:33:00,
2013-06-28 19:42:00,86.0,58.0,29.86,East,88,3.0,8.0,39,0.00,,,0.00,,2013-06-29 00:42:00,
2013-06-28 19:52:00,86.0,58.0,29.86,East,88,3.0,8.0,39,0.00,,,0.00,,2013-06-29 00:52:00,
2013-06-28 20:01:00,86.0,58.0,29.86,East,88,3.0,8.0,39,0.00,,,0.00,,2013-06-29 01:01:00,
2013-06-28 20:11:00,86.0,58.0,29.86,East,88,3.0,8.0,39,0.00,,,0.00,,2013-06-29 01:11:00,
2013-06-28 20:22:00,86.0,58.0,29.86,East,88,3.0,8.0,39,0.00,,,0.00,,2013-06-29 01:22:00,
2013-06-28 21:51:00,79.0,56.0,29.87,ENE,65,0.0,3.0,46,0.00,,,0.00,,2013-06-29 02:51:00,
2013-06-28 22:01:00,79.0,56.0,29.87,ENE,65,0.0,3.0,46,0.00,,,0.00,,2013-06-29 03:01:00,
2013-06-28 22:11:00,79.0,56.0,29.87,ENE,65,0.0,3.0,46,0.00,,,0.00,,2013-06-29 03:11:00,
2013-06-28 22:21:00,79.0,56.0,29.87,ENE,65,0.0,3.0,46,0.00,,,0.00,,2013-06-29 03:21:00,
2013-06-28 22:32:00,79.0,56.0,29.87,ENE,65,0.0,3.0,46,0.00,,,0.00,,2013-06-29 03:32:00,